This is the latest recevied weather packets stored in our database for station/object DB0SMU-12. If no packets are shown the sender has not sent any weather packets the latest 10 day(s).
| Time | Temp. | Humidity | Pressure | Rain* | Wind** | Luminosity | Snow |
|---|---|---|---|---|---|---|---|
| 1778177058 | 12.22° C | 65% | 1016.4 hPa | 0 mm | - | - | - |
| 1778176877 | 12.78° C | 65% | 1016.5 hPa | 0 mm | - | - | - |
| 1778176696 | 12.78° C | 64% | 1016.4 hPa | 0 mm | - | - | - |
| 1778176515 | 12.78° C | 64% | 1016.3 hPa | 0 mm | - | - | - |
| 1778176335 | 12.78° C | 63% | 1016.4 hPa | 0 mm | - | - | - |
| 1778176154 | 12.78° C | 64% | 1016.3 hPa | 0 mm | - | - | - |
| 1778175973 | 12.78° C | 64% | 1016.2 hPa | 0 mm | - | - | - |
| 1778175792 | 12.78° C | 64% | 1016.1 hPa | 0 mm | - | - | - |
| 1778175611 | 12.78° C | 64% | 1016.2 hPa | 0 mm | - | - | - |
| 1778175430 | 13.33° C | 63% | 1016.2 hPa | 0 mm | - | - | - |
| 1778175249 | 13.33° C | 63% | 1016.3 hPa | 0 mm | - | - | - |
| 1778175068 | 13.33° C | 62% | 1016.3 hPa | 0 mm | - | - | - |
| 1778174887 | 13.33° C | 64% | 1016.2 hPa | 0 mm | - | - | - |
| 1778174707 | 12.78° C | 64% | 1016.3 hPa | 0 mm | - | - | - |
| 1778174526 | 12.78° C | 65% | 1016.3 hPa | 0 mm | - | - | - |
| 1778174344 | 12.78° C | 64% | 1016.3 hPa | 0 mm | - | - | - |
| 1778174164 | 13.33° C | 63% | 1016.3 hPa | 0 mm | - | - | - |
| 1778173983 | 13.33° C | 63% | 1016.3 hPa | 0 mm | - | - | - |
| 1778173802 | 13.89° C | 62% | 1016.1 hPa | 0 mm | - | - | - |
| 1778173621 | 13.89° C | 61% | 1016.2 hPa | 0 mm | - | - | - |
| 1778173440 | 13.89° C | 60% | 1016.1 hPa | 0 mm | - | - | - |
| 1778173259 | 14.44° C | 60% | 1016 hPa | 0 mm | - | - | - |
| 1778173078 | 13.89° C | 60% | 1016 hPa | 0 mm | - | - | - |
| 1778172897 | 14.44° C | 60% | 1016.1 hPa | 0 mm | - | - | - |
| 1778172716 | 14.44° C | 61% | 1015.9 hPa | 0 mm | - | - | - |
* Rain latest hour (hover to see other rain measurements)
** Current wind speed in m/s (hover to see current wind gust speed)